Content
SEND FEEDBACK

Daily
Averages
Monthly
Summary
United States of America

PONDEROSA, NEW MEXICO


Home > North America > United States > New Mexico
Elevation: 1985 meters     Latitude: 35 47N     Longitude: 106 41W

WEATHER
 
SELECT A DAY
Number of Records: 242,719;   Date Range: 1/1/95 - 9/29/14
 
SHARE

PRINT THIS DATA

[ ← Previous Day ]
WEATHER ALMANAC - 31 JANUARY, 2013
[ Next Day → ]
[ °F ]   °C
Weather ElementAverageHighLow
Temperature0.6 °C6.3 °C (4:15 pm)-4.2 °C (5:35 am)
Dewpoint-6.6 °C-5.2 °C (11:35 am)-8 °C (12:35 am)
Humidity60.6 %80 % (5:35 am)40 % (4:15 pm)
Barometer1023.4 hPa1025.4 hPa (10:35 am)1020.7 hPa (3:15 am)
Wind Speed1.4 km/h11.1 km/h (12:15 pm)
Weather ElementAverage
Visibility16.1 km
Wind DirectionNNE (24.9 °)

Weather ElementTotal
Precipitation---
Heating Degree Days17.3 (Base 18.3)
Averaged from 68 records on 31 January, 2013
WEATHER CONDITIONS BREAKOUT
WIND DIRECTION BREAKOUT
WEATHER BY HOUR - 31 JANUARY, 2013
[ °F ]   °C
Local TimeTemperatureDewpointHumidityBarometerVisibilityWind DirectionWind SpeedGust SpeedPrecipitationEventsConditions
12:35 AM-2.4 °C-8 °C66 %1021.3 hPaCalmMostly Cloudy
12:55 AM-2.8 °C-7.9 °C68 %1021 hPaCalmScattered Clouds
1:15 AM-3.1 °C-7.8 °C70 %1021 hPaCalmClear
1:35 AM-2.8 °C-7.6 °C70 %1021 hPaCalmClear
1:55 AM-3.1 °C-7.6 °C71 %1021 hPaCalmClear
2:15 AM-3.3 °C-7.6 °C73 %1021 hPaCalmClear
2:35 AM-3.3 °C-7.5 °C73 %1021 hPaENE (70°)7.4 km/hClear
2:55 AM-3.6 °C-7.6 °C74 %1021 hPaCalmClear
3:15 AM-3.5 °C-7.3 °C75 %1020.7 hPa16.1 kmCalmClear
3:35 AM-3.5 °C-7.2 °C76 %1021 hPa16.1 kmCalmClear
3:55 AM-4.1 °C-7.3 °C79 %1021 hPa16.1 kmCalmClear
4:15 AM-3.6 °C-7.1 °C77 %1021.7 hPa16.1 kmCalmClear
4:35 AM-3.8 °C-7.3 °C77 %1021.7 hPa16.1 kmCalmClear
5:15 AM-4 °C-7.3 °C78 %1021.7 hPa16.1 kmCalmClear
5:35 AM-4.2 °C-7.2 °C80 %1021.7 hPa16.1 kmCalmClear
5:55 AM-3.8 °C-7.1 °C78 %1022 hPa16.1 kmCalmClear
6:15 AM-3.9 °C-6.9 °C80 %1022 hPa16.1 kmCalmClear
6:35 AM-3.7 °C-6.8 °C79 %1022.4 hPa16.1 kmCalmClear
6:55 AM-3.7 °C-6.8 °C79 %1023.4 hPa16.1 kmCalmClear
7:15 AM-3.9 °C-6.9 °C80 %1023.4 hPa16.1 kmCalmClear
7:35 AM-3.5 °C-6.5 °C80 %1023.7 hPa16.1 kmCalmScattered Clouds
7:55 AM-3.2 °C-6.3 °C79 %1024 hPa16.1 kmCalmClear
8:15 AM-2.5 °C-6 °C77 %1023.7 hPa16.1 kmCalmClear
8:35 AM-2.1 °C-6 °C75 %1024.4 hPa16.1 kmCalmClear
8:55 AM-1.1 °C-6 °C70 %1024.7 hPa16.1 kmCalmClear
9:15 AM-1.3 °C-5.6 °C73 %1025.1 hPa16.1 kmSE (130°)7.4 km/hClear
9:35 AM-0.5 °C-5.5 °C69 %1025.1 hPa16.1 kmSE (130°)5.6 km/hClear
9:55 AM-0.1 °C-5.4 °C68 %1025.1 hPa16.1 kmESE (110°)7.4 km/hClear
10:15 AM0 °C-5.4 °C67 %1024.7 hPa16.1 kmEast (80°)5.6 km/hClear
10:35 AM0.3 °C-5.4 °C66 %1025.4 hPa16.1 kmENE (60°)9.3 km/hClear
10:55 AM0.5 °C-5.9 °C63 %1025.4 hPa16.1 kmCalmClear
11:15 AM1.5 °C-5.6 °C60 %1025.1 hPa16.1 kmCalmClear
11:35 AM2.2 °C-5.2 °C58 %1024.7 hPa16.1 kmEast (80°)7.4 km/hClear
11:55 AM2.5 °C-5.5 °C56 %1024.4 hPa16.1 kmENE (60°)9.3 km/hClear
12:15 PM2.9 °C-5.3 °C55 %1024 hPa16.1 kmENE (70°)11.1 km/hClear
12:35 PM3.2 °C-5.6 °C53 %1023.4 hPa16.1 kmCalmClear
12:55 PM3.6 °C-5.5 °C52 %1023 hPa16.1 kmCalmClear
1:15 PM4.4 °C-5.6 °C49 %1022.7 hPa16.1 kmEast (100°)7.4 km/hClear
1:35 PM4.3 °C-6.3 °C46 %1022.7 hPa16.1 kmCalmClear
1:55 PM4.9 °C-6.3 °C45 %1023 hPa16.1 kmCalmClear
2:15 PM4.9 °C-6.2 °C45 %1023 hPa16.1 kmCalmClear
2:35 PM5.5 °C-6 °C44 %1023.4 hPa16.1 kmCalmClear
2:55 PM5.7 °C-6.2 °C43 %1023.7 hPa16.1 kmCalmClear
3:15 PM6 °C-6.2 °C42 %1024 hPa16.1 kmCalmClear
3:35 PM6 °C-6.3 °C41 %1024 hPa16.1 kmCalmClear
3:55 PM6.2 °C-6.3 °C41 %1024 hPa16.1 kmCalmClear
4:15 PM6.3 °C-6.3 °C40 %1024 hPa16.1 kmCalmClear
4:35 PM6.2 °C-6 °C42 %1024.4 hPa16.1 kmCalmClear
5:15 PM5.5 °C-6.5 °C42 %1024.4 hPa16.1 kmCalmClear
5:35 PM5 °C-6.7 °C43 %1024.4 hPa16.1 kmCalmClear
5:55 PM5 °C-6.7 °C43 %1024.4 hPa16.1 kmCalmClear
6:15 PM4 °C-6.6 °C46 %1024.7 hPa16.1 kmCalmClear
6:35 PM3.5 °C-6.7 °C48 %1024.7 hPa16.1 kmCalmClear
6:55 PM3.2 °C-6.7 °C49 %1024.7 hPa16.1 kmCalmClear
7:15 PM3 °C-6.5 °C50 %1024.7 hPa16.1 kmNW (320°)5.6 km/hClear
7:35 PM3.2 °C-7 °C48 %1024.7 hPa16.1 kmNW (310°)5.6 km/hClear
7:55 PM3 °C-7 °C48 %1024.7 hPa16.1 kmCalmClear
8:15 PM3 °C-7.1 °C48 %1024.7 hPa16.1 kmCalmClear
8:35 PM2.5 °C-7 °C50 %1024.4 hPa16.1 kmCalmClear
8:55 PM2.3 °C-6.8 °C51 %1024.4 hPa16.1 kmCalmClear
9:15 PM2.8 °C-7.2 °C48 %1024.4 hPa16.1 kmCalmClear
9:35 PM2.1 °C-7 °C51 %1024.4 hPa16.1 kmEast (80°)5.6 km/hClear
10:15 PM0.9 °C-7 °C56 %1024.7 hPa16.1 kmCalmClear
10:35 PM0.7 °C-7 °C57 %1025.1 hPa16.1 kmCalmClear
10:55 PM0.2 °C-7 °C59 %1025.1 hPa16.1 kmCalmClear
11:15 PM0.3 °C-6.7 °C60 %1025.1 hPa16.1 kmCalmClear
11:35 PM0.1 °C-6.5 °C62 %1025.1 hPa16.1 kmEast (90°)5.6 km/hClear
11:55 PM0.1 °C-6.6 °C61 %1025.1 hPa16.1 kmCalmClear
Hourly data recorded from KLAM, located 0 kilometers away from Ponderosa, New Mexico







STORIES FROM OUR PARTNERS